Lexington Weather

Lexington, Massachusetts, USA

34°F
4/16/2021 10:49am 
  • Lexington Conditions: Snow, Fog, Overcast
  • Temperature: 34.0°F / 1.1°CWarmer 0.2°F than last hour.
  • Dew Point: 32.7°FIncreased 0.2°Fsince last hour.
  • Relative Humidity: 95
  • Wind: Wind from N N 3 mph, 10-min avg: 1 mph, gust: 4 mph
  • Barometer: 29.47 inFalling 0.03  inHg/hr Falling Slowly
  • Visibility: ½ mile
  • Snow Today: 1.3 in
  •   

Regional Weather Roundup
for Boston / Norton, MA

        
000
ASUS41 KBOX 110505
RWRBOX

REGIONAL WEATHER ROUNDUP
NATIONAL WEATHER SERVICE BOSTON/NORTON MA
100 AM EDT SUN APR 11 2021

NOTE:  "FAIR" INDICATES FEW OR NO CLOUDS BELOW 12,000 FEET WITH NO 
SIGNIFICANT WEATHER AND/OR OBSTRUCTIONS TO VISIBILITY.

MAZALL-110600-
EASTERN MASSACHUSETTS
  
CITY           SKY/WX    TMP DP  RH WIND       PRES   REMARKS
BOSTON         PTCLDY    59  50  72 SW9       29.73S                  
BEVERLY        NOT AVBL                                               
LAWRENCE       PTCLDY    59  52  77 SW5       29.73S                  
BEDFORD        PTCLDY    59  51  75 SW6       29.72S                  
BLUE HILL        N/A     53  50  89 SW15      29.73S                  
NORWOOD        PTCLDY    56  50  80 S6        29.74S                  
MARSHFIELD     PTCLDY    57  52  82 SW8G20    29.73S                  
PLYMOUTH       PTCLDY    53  50  89 SW9       29.75F                  
TAUNTON        PTCLDY    53  49  86 SW6       29.75F                  
NEW BEDFORD    PTCLDY    52  50  93 SW5       29.76F                  
$$

MAZALL-110600-
CAPE COD AND THE ISLANDS
  
CITY           SKY/WX    TMP DP  RH WIND       PRES   REMARKS
FALMOUTH       FOG       48  48 100 SW14      29.77F VSB 3/4          
HYANNIS        CLOUDY    53  51  93 SW15      29.74F                  
CHATHAM        FOG       48  47  96 SW12G20   29.78F VSB 1/2          
PROVINCETOWN   CLEAR     48  47  96 MISG      29.75S                  
NANTUCKET      FOG       46  46 100 SW8       29.78F VSB 1/2          
MARTHAS VNYRD  FOG       49  49 100 SW7       29.78S VSB 1/2          
$$
 
MAZALL-110600-
CENTRAL AND WESTERN MASSACHUSETTS
  
CITY           SKY/WX    TMP DP  RH WIND       PRES   REMARKS
WORCESTER      PTCLDY    56  50  80 W15       29.75S                  
FITCHBURG      MOCLDY    60  53  77 VRB6      29.73S                  
ORANGE         PTCLDY    53  50  89 SW5       29.76S                  
SPRINGFIELD    PTCLDY    54  51  90 S3        29.74F                  
WESTFIELD      MOCLDY    55  51  86 S5        29.75S                  
NORTH ADAMS    MOCLDY    54  48  80 CALM      29.75S                  
PITTSFIELD     MOCLDY    53  49  86 CALM      29.75S                  
$$
 
RIZALL-110600-
RHODE ISLAND
  
CITY           SKY/WX    TMP DP  RH WIND       PRES   REMARKS
PROVIDENCE     PTCLDY    54  51  90 SW6       29.76F                  
NEWPORT        FOG       50  50 100 S3        29.77S VSB 1            
BLOCK ISLAND   LGT RAIN  49  48  97 SW12      29.79S VSB 3/4          
SMITHFIELD     PTCLDY    54  53  97 SW6       29.76F                  
WESTERLY       FOG       48  48 100 W3        29.78F VSB 3/4          
$$
 
CTZALL-110600-
CONNECTICUT
  
CITY           SKY/WX    TMP DP  RH WIND       PRES   REMARKS
BRADLEY INTL   MOCLDY    56  51  84 S9        29.76S                  
HARTFORD       MOCLDY    56  50  80 S6        29.77S                  
BRIDGEPORT     CLOUDY    52  51  97 SW3       29.77F FOG              
DANBURY        MOCLDY    54  50  86 CALM      29.77F                  
GROTON         CLOUDY    50  49  96 SW6       29.78F                  
NEW HAVEN      FOG       53  52  96 S3        29.78S VSB 1/4          
CHESTER        CLOUDY    52  52 100 CALM      29.78S                  
MERIDEN        MOCLDY    52  49  89 S5        29.77F                  
WILLIMANTIC    PTCLDY    53  50  89 CALM      29.77F                  
OXFORD         MOCLDY    52  52 100 CALM      29.78F                  
$$

MEZ002-015-021-024-NHZ003-005-008-011-012-014-VTZ005-008-110600-
NORTHERN NEW ENGLAND
  
CITY           SKY/WX    TMP DP  RH WIND       PRES   REMARKS
PORTLAND ME    CLOUDY    47  45  93 NE12      29.76R                  
BANGOR ME      CLOUDY    47  42  83 E8        29.83R                  
CONCORD NH     MOCLDY    55  49  80 CALM      29.71S                  
MANCHESTER NH  MOCLDY    62  51  67 S3        29.70S                  
NASHUA NH      MOCLDY    57  54  89 CALM      29.72S                  
PORTSMOUTH NH  PTCLDY    52  47  84 NE7       29.72R                  
JAFFREY NH     MOCLDY    55  52  89 S3        29.75S                  
KEENE NH       MOCLDY    51  50  96 CALM      29.74S                  
BURLINGTON VT  PTCLDY    55  47  74 E3        29.71S                  
MT. WASHINGTON MOCLDY    41  39  93 NW24        N/A  WCI  31          
$$

NYZ052-076-110600-
EASTERN NEW YORK
  
CITY           SKY/WX    TMP DP  RH WIND       PRES   REMARKS
ALBANY         CLOUDY    60  53  77 SE7       29.73S                  
NEW YORK CITY  FOG       55  52  89 S5        29.77F VSB 1/4          
$$
 
ANZALL-110600-
MARINE OBSERVATIONS
  
STATION/POSITION TIME  TEMP    WIND        PRES    VSBY  WAVE
                       AIR SEA DIR/SP/G                  HT/PER
                 (UTC) (F)     (DEG/KT/KT) (MB)    (MI)  (FT/S)
BOSTON BUOY      0450   50 46  220/  6/  8 1006.7F         3/10
BUZZARDS BAY     0400          230/  9/ 10 1009.6R
NANTUCKET SOUND  0450      47                N/A           1/ 8
MASS BAY-STELLWA 0404   50     210/ 12/ 14 1004.9F  1 7/8  3/11
ISLE OF SHOALS   0400   55     360/  7/  8 1005.6R
S OF BLOCK IS    0426      46                N/A           3/11
$$

......................KEY.........................
  SKY/WX - SKY CONDITION/PRESENT WEATHER
  TMP    - TEMPERATURE IN FAHRENHEIT
  DWPT   - DEWPOINT IN FAHRENHEIT
  RH     - RELATIVE HUMIDITY IN PERCENT
  WIND   - DIRECTION AND SPEED IN MPH
  PRES   - MEAN SEA LEVEL PRESSURE IN INCHES OF HG
  WCI    - WIND CHILL INDEX
  VSB    - VISIBILITY IN MILES
  HX     - HEAT INDEX
  TC     - TEMPERATURE IN CELSIUS
  VRB    - VARIABLE WIND DIRECTION
  N/A    - NOT AVAILABLE
  
      

Other recent Regional Weather Roundups

Fri Apr 16, 10:05am

Fri Apr 16, 9:04am

Fri Apr 16, 8:04am

Fri Apr 16, 7:04am

Fri Apr 16, 6:04am

Fri Apr 16, 5:04am

Fri Apr 16, 4:04am

Fri Apr 16, 3:04am

Fri Apr 16, 2:04am

Fri Apr 16, 1:04am

Fri Apr 16, 12:04am

Thu Apr 15, 11:05pm

Thu Apr 15, 10:04pm

Thu Apr 15, 9:04pm

Thu Apr 15, 8:04pm

Thu Apr 15, 7:05pm

Thu Apr 15, 6:04pm

Thu Apr 15, 5:05pm

Thu Apr 15, 4:04pm

Thu Apr 15, 3:05pm

Thu Apr 15, 2:04pm

Thu Apr 15, 1:05pm

Thu Apr 15, 12:04pm

Thu Apr 15, 11:04am

Thu Apr 15, 10:05am

Thu Apr 15, 9:04am

Thu Apr 15, 8:04am

Thu Apr 15, 7:04am

Thu Apr 15, 6:04am

Thu Apr 15, 5:04am

Thu Apr 15, 4:04am

Thu Apr 15, 3:04am

Thu Apr 15, 2:04am

Thu Apr 15, 1:04am

Thu Apr 15, 12:04am

Wed Apr 14, 11:04pm

Wed Apr 14, 10:04pm

Wed Apr 14, 9:04pm

Wed Apr 14, 8:04pm

Wed Apr 14, 7:04pm

Wed Apr 14, 6:04pm

Wed Apr 14, 5:05pm

Wed Apr 14, 4:04pm

Wed Apr 14, 3:05pm

Wed Apr 14, 2:04pm

Wed Apr 14, 1:05pm

Wed Apr 14, 12:04pm

Wed Apr 14, 11:04am

Wed Apr 14, 10:04am

Wed Apr 14, 9:04am

Wed Apr 14, 8:04am

Wed Apr 14, 7:04am

Wed Apr 14, 6:04am

Wed Apr 14, 5:04am

Wed Apr 14, 4:04am

Wed Apr 14, 3:04am

Wed Apr 14, 2:04am

Wed Apr 14, 1:04am

Wed Apr 14, 12:04am

Tue Apr 13, 11:04pm

Tue Apr 13, 10:05pm

Tue Apr 13, 9:05pm

Tue Apr 13, 8:05pm

Tue Apr 13, 7:04pm

Tue Apr 13, 6:04pm

Tue Apr 13, 5:05pm

Tue Apr 13, 4:04pm

Tue Apr 13, 3:04pm

Tue Apr 13, 2:05pm

Tue Apr 13, 1:04pm

Tue Apr 13, 12:05pm

Tue Apr 13, 11:05am

Tue Apr 13, 10:04am

Tue Apr 13, 9:04am

Tue Apr 13, 8:04am

Tue Apr 13, 7:04am

Tue Apr 13, 6:04am

Tue Apr 13, 5:04am

Tue Apr 13, 4:04am

Tue Apr 13, 3:04am

Tue Apr 13, 2:04am

Tue Apr 13, 1:04am

Tue Apr 13, 12:05am

Mon Apr 12, 11:04pm

Mon Apr 12, 10:04pm

Mon Apr 12, 9:04pm

Mon Apr 12, 8:04pm

Mon Apr 12, 7:05pm

Mon Apr 12, 6:04pm

Mon Apr 12, 5:04pm

Mon Apr 12, 4:04pm

Mon Apr 12, 3:05pm

Mon Apr 12, 2:04pm

Mon Apr 12, 1:05pm

Mon Apr 12, 12:04pm

Mon Apr 12, 11:04am

Mon Apr 12, 10:04am

Mon Apr 12, 9:04am

Mon Apr 12, 8:04am

Mon Apr 12, 7:04am

Mon Apr 12, 6:04am

Mon Apr 12, 5:04am

Mon Apr 12, 4:04am

Mon Apr 12, 3:04am

Mon Apr 12, 2:04am

Mon Apr 12, 1:05am

Mon Apr 12, 12:04am

Sun Apr 11, 11:04pm

Sun Apr 11, 10:04pm

Sun Apr 11, 9:04pm

Sun Apr 11, 8:04pm

Sun Apr 11, 7:04pm

Sun Apr 11, 6:05pm

Sun Apr 11, 5:05pm

Sun Apr 11, 4:04pm

Sun Apr 11, 3:05pm

Sun Apr 11, 2:05pm

Sun Apr 11, 1:05pm

Sun Apr 11, 12:04pm

Sun Apr 11, 11:05am

Sun Apr 11, 10:05am

Sun Apr 11, 9:04am

Sun Apr 11, 8:04am

Sun Apr 11, 7:04am

Sun Apr 11, 6:04am

Sun Apr 11, 5:04am

Sun Apr 11, 4:04am

Sun Apr 11, 3:04am

Sun Apr 11, 2:04am

Sun Apr 11, 12:04am

Sat Apr 10, 11:05pm

Sat Apr 10, 10:04pm

Sat Apr 10, 9:04pm

Sat Apr 10, 8:04pm

Sat Apr 10, 7:05pm

Sat Apr 10, 6:04pm

Sat Apr 10, 5:04pm

Sat Apr 10, 4:04pm

Sat Apr 10, 3:04pm

Sat Apr 10, 2:05pm

Sat Apr 10, 1:04pm

Sat Apr 10, 12:04pm

Sat Apr 10, 11:04am

Sat Apr 10, 10:04am

Sat Apr 10, 9:04am

Sat Apr 10, 8:04am

Sat Apr 10, 7:04am

Sat Apr 10, 6:04am

Sat Apr 10, 5:04am

Sat Apr 10, 4:04am

Sat Apr 10, 3:04am

Sat Apr 10, 2:04am

Sat Apr 10, 1:05am

Sat Apr 10, 12:04am

Fri Apr 9, 11:04pm

Fri Apr 9, 10:05pm

Fri Apr 9, 9:04pm

Fri Apr 9, 8:05pm

Fri Apr 9, 7:05pm

Fri Apr 9, 6:04pm

Fri Apr 9, 5:04pm

Fri Apr 9, 4:05pm

Fri Apr 9, 3:05pm

Fri Apr 9, 2:04pm

Fri Apr 9, 1:04pm

Fri Apr 9, 12:04pm

Fri Apr 9, 11:05am

Meta data:

ID: f6b19a8f-37f7-4d53-9a10-2a60ab4561ea
Link: https://api.weather.gov/products/f6b19a8f-37f7-4d53-9a10-2a60ab4561ea